| time (UTC) | temp F | wind direction | speed MPH | gust MPH | rain 1hr in | rain 24hr in | rain mn in | humidity % | barometer mb |
| 20260504050415 | 34 | 130 | 0.0 | 0.0 | 0.00 | 0.00 | 0.00 | 87 | 1008.3 |
| 20260504045912 | 34 | 132 | 0.0 | 0.0 | 0.00 | 0.00 | 0.00 | 88 | 1008.3 |
| 20260504045408 | 34 | 131 | 0.0 | 0.0 | 0.00 | 0.00 | 0.00 | 88 | 1008.5 |
| 20260504044904 | 33 | 118 | 0.0 | 0.0 | 0.00 | 0.00 | 0.00 | 88 | 1008.3 |
| 20260504044401 | 33 | 131 | 0.0 | 0.0 | 0.00 | 0.00 | 0.00 | 87 | 1008.3 |
| 20260504043859 | 33 | 140 | 0.0 | 0.0 | 0.00 | 0.00 | 0.00 | 87 | 1008.4 |
| 20260504043356 | 33 | 141 | 0.0 | 0.0 | 0.00 | 0.00 | 0.00 | 87 | 1008.3 |
| 20260504042853 | 33 | 139 | 0.0 | 0.0 | 0.00 | 0.00 | 0.00 | 87 | 1008.5 |
| 20260504042349 | 33 | 152 | 0.0 | 0.0 | 0.00 | 0.00 | 0.00 | 87 | 1008.4 |
| 20260504041846 | 33 | 111 | 0.0 | 0.0 | 0.00 | 0.00 | 0.00 | 86 | 1008.4 |
| 20260504041342 | 33 | 111 | 0.0 | 0.0 | 0.00 | 0.00 | 0.00 | 86 | 1008.4 |
| 20260504040838 | 33 | 111 | 0.0 | 0.0 | 0.00 | 0.00 | 0.00 | 86 | 1008.2 |
| 20260504040336 | 34 | 121 | 0.0 | 0.0 | 0.00 | 0.00 | 0.00 | 85 | 1008.2 |
| 20260504035831 | 34 | 121 | 0.0 | 0.0 | 0.00 | 0.01 | 0.01 | 85 | 1008.1 |
| 20260504035330 | 34 | 123 | 0.0 | 0.0 | 0.00 | 0.01 | 0.01 | 84 | 1008.4 |
| 20260504034826 | 34 | 111 | 0.0 | 0.0 | 0.00 | 0.01 | 0.01 | 84 | 1008.2 |
| 20260504034324 | 34 | 110 | 0.0 | 0.0 | 0.00 | 0.01 | 0.01 | 83 | 1008.2 |
| 20260504033821 | 34 | 110 | 0.0 | 0.0 | 0.00 | 0.01 | 0.01 | 83 | 1008.2 |
| 20260504033319 | 35 | 110 | 0.0 | 0.0 | 0.00 | 0.01 | 0.01 | 82 | 1008.0 |
| 20260504032815 | 35 | 112 | 0.0 | 0.0 | 0.00 | 0.01 | 0.01 | 82 | 1008.1 |
| 20260504032312 | 35 | 113 | 0.0 | 0.0 | 0.00 | 0.01 | 0.01 | 81 | 1008.1 |
| 20260504031809 | 35 | 110 | 0.0 | 0.0 | 0.00 | 0.01 | 0.01 | 81 | 1008.3 |
| 20260504031306 | 35 | 110 | 0.0 | 0.0 | 0.00 | 0.01 | 0.01 | 80 | 1008.2 |
| 20260504030803 | 35 | 108 | 0.0 | 0.0 | 0.00 | 0.01 | 0.01 | 80 | 1008.1 |
| 20260504030300 | 36 | 106 | 0.0 | 0.0 | 0.00 | 0.01 | 0.01 | 79 | 1008.3 |
| 20260504025756 | 36 | 118 | 0.0 | 0.0 | 0.00 | 0.01 | 0.01 | 79 | 1008.1 |
| 20260504025253 | 36 | 130 | 0.0 | 0.0 | 0.00 | 0.01 | 0.01 | 79 | 1008.2 |
| 20260504024749 | 36 | 114 | 0.0 | 0.0 | 0.00 | 0.01 | 0.01 | 78 | 1008.2 |
| 20260504024246 | 36 | 123 | 0.0 | 0.0 | 0.00 | 0.01 | 0.01 | 78 | 1008.2 |
| 20260504023743 | 36 | 124 | 0.0 | 0.0 | 0.00 | 0.01 | 0.01 | 78 | 1007.9 |
| 20260504023239 | 37 | 109 | 0.0 | 0.0 | 0.00 | 0.01 | 0.01 | 77 | 1008.0 |
| 20260504022735 | 37 | 114 | 0.0 | 0.0 | 0.00 | 0.01 | 0.01 | 77 | 1008.1 |
| 20260504022232 | 37 | 114 | 0.0 | 0.0 | 0.00 | 0.01 | 0.01 | 76 | 1008.1 |
| 20260504021729 | 37 | 110 | 0.0 | 0.0 | 0.00 | 0.01 | 0.01 | 76 | 1008.0 |
| 20260504021226 | 37 | 134 | 0.0 | 0.0 | 0.00 | 0.01 | 0.01 | 75 | 1008.0 |
| 20260504020723 | 38 | 134 | 0.0 | 0.0 | 0.00 | 0.01 | 0.01 | 75 | 1008.1 |
| 20260504020219 | 38 | 117 | 0.0 | 0.0 | 0.00 | 0.01 | 0.01 | 75 | 1007.9 |
| 20260504015716 | 38 | 117 | 0.0 | 0.0 | 0.00 | 0.01 | 0.01 | 74 | 1008.0 |
| 20260504015212 | 38 | 118 | 0.0 | 0.0 | 0.00 | 0.01 | 0.01 | 74 | 1007.9 |
| 20260504014708 | 38 | 118 | 0.0 | 0.0 | 0.00 | 0.01 | 0.01 | 74 | 1008.0 |
| 20260504014205 | 39 | 117 | 0.0 | 0.0 | 0.00 | 0.01 | 0.01 | 73 | 1007.9 |
| 20260504013703 | 39 | 116 | 0.0 | 0.0 | 0.00 | 0.01 | 0.01 | 73 | 1007.8 |
| 20260504013200 | 39 | 114 | 0.0 | 0.0 | 0.00 | 0.01 | 0.01 | 72 | 1007.8 |
| 20260504012656 | 39 | 144 | 0.0 | 0.0 | 0.00 | 0.01 | 0.01 | 71 | 1007.8 |
| 20260504012154 | 40 | 111 | 0.0 | 0.0 | 0.00 | 0.01 | 0.01 | 71 | 1007.6 |
| 20260504011651 | 40 | 111 | 0.0 | 0.0 | 0.00 | 0.01 | 0.01 | 70 | 1007.7 |
| 20260504011148 | 40 | 146 | 0.0 | 0.0 | 0.00 | 0.01 | 0.01 | 70 | 1007.6 |
| 20260504010643 | 40 | 170 | 0.0 | 0.0 | 0.00 | 0.01 | 0.01 | 70 | 1007.5 |
| 20260504010139 | 41 | 145 | 0.0 | 0.0 | 0.00 | 0.01 | 0.01 | 69 | 1007.4 |
| 20260504005637 | 41 | 146 | 0.0 | 0.0 | 0.00 | 0.01 | 0.01 | 68 | 1007.5 |
| 20260504005133 | 41 | 114 | 0.0 | 0.0 | 0.00 | 0.01 | 0.01 | 67 | 1007.4 |
| 20260504004631 | 42 | 127 | 0.0 | 0.0 | 0.00 | 0.01 | 0.01 | 66 | 1007.3 |
| 20260504004128 | 43 | 211 | 0.0 | 1.0 | 0.00 | 0.01 | 0.01 | 64 | 1007.3 |
| 20260504003624 | 43 | 130 | 0.0 | 1.0 | 0.00 | 0.01 | 0.01 | 62 | 1007.1 |
| 20260504003121 | 44 | 125 | 0.0 | 1.0 | 0.00 | 0.01 | 0.01 | 58 | 1007.3 |
| 20260504002618 | 45 | 120 | 0.0 | 0.0 | 0.00 | 0.01 | 0.01 | 55 | 1007.1 |
| 20260504002116 | 46 | 132 | 0.0 | 0.0 | 0.00 | 0.01 | 0.01 | 52 | 1007.1 |
| 20260504001613 | 46 | 130 | 0.0 | 0.0 | 0.00 | 0.01 | 0.01 | 51 | 1007.0 |
| 20260504001109 | 47 | 135 | 0.0 | 0.0 | 0.00 | 0.01 | 0.01 | 49 | 1006.8 |
| 20260504000607 | 47 | 262 | 0.0 | 1.0 | 0.00 | 0.01 | 0.01 | 47 | 1006.8 |
| 20260504000104 | 48 | 183 | 1.0 | 4.0 | 0.00 | 0.01 | 0.01 | 47 | 1006.7 |
| 20260503235602 | 48 | 143 | 0.0 | 1.0 | 0.00 | 0.01 | 0.01 | 46 | 1006.8 |
| 20260503235058 | 48 | 195 | 1.0 | 2.0 | 0.00 | 0.01 | 0.01 | 45 | 1006.4 |
| 20260503234556 | 49 | 286 | 1.0 | 3.0 | 0.00 | 0.01 | 0.01 | 44 | 1006.9 |
| 20260503234054 | 49 | 214 | 2.0 | 9.0 | 0.00 | 0.01 | 0.01 | 43 | 1006.8 |
| 20260503233550 | 49 | 240 | 1.0 | 2.0 | 0.00 | 0.01 | 0.01 | 43 | 1006.6 |
| 20260503233046 | 49 | 317 | 3.0 | 7.0 | 0.00 | 0.01 | 0.01 | 42 | 1006.6 |
| 20260503232544 | 50 | 270 | 4.0 | 4.0 | 0.00 | 0.01 | 0.01 | 42 | 1006.4 |
| 20260503232041 | 50 | 90 | 2.0 | 6.0 | 0.00 | 0.01 | 0.01 | 42 | 1006.6 |
| 20260503231539 | 50 | 255 | 1.0 | 6.0 | 0.00 | 0.01 | 0.01 | 42 | 1006.5 |
| 20260503231035 | 50 | 249 | 3.0 | 8.0 | 0.00 | 0.01 | 0.01 | 40 | 1006.4 |
| 20260503230532 | 51 | 261 | 4.0 | 11.0 | 0.00 | 0.01 | 0.01 | 40 | 1006.2 |
| 20260503230030 | 51 | 26 | 1.0 | 4.0 | 0.00 | 0.01 | 0.01 | 40 | 1006.1 |
| 20260503225527 | 51 | 231 | 2.0 | 4.0 | 0.00 | 0.01 | 0.01 | 40 | 1006.2 |
| 20260503225027 | 52 | 183 | 2.0 | 10.0 | 0.00 | 0.01 | 0.01 | 38 | 1006.1 |
| 20260503224525 | 52 | 328 | 4.0 | 13.0 | 0.00 | 0.01 | 0.01 | 38 | 1006.2 |
| 20260503224022 | 52 | 328 | 6.0 | 10.0 | 0.00 | 0.01 | 0.01 | 37 | 1006.1 |
| 20260503223520 | 52 | 241 | 6.0 | 9.0 | 0.00 | 0.01 | 0.01 | 38 | 1006.1 |
| 20260503223015 | 51 | 249 | 6.0 | 7.0 | 0.00 | 0.01 | 0.01 | 39 | 1006.0 |
| 20260503222514 | 51 | 289 | 9.0 | 11.0 | 0.00 | 0.01 | 0.01 | 39 | 1006.0 |
| 20260503222011 | 51 | 82 | 5.0 | 11.0 | 0.00 | 0.01 | 0.01 | 38 | 1006.0 |
| 20260503221510 | 51 | 279 | 6.0 | 8.0 | 0.00 | 0.01 | 0.01 | 38 | 1005.7 |
| 20260503221007 | 52 | 278 | 4.0 | 8.0 | 0.00 | 0.01 | 0.01 | 38 | 1005.7 |
| 20260503220502 | 53 | 286 | 3.0 | 7.0 | 0.00 | 0.01 | 0.01 | 36 | 1005.6 |
| 20260503215959 | 52 | 314 | 1.0 | 9.0 | 0.00 | 0.01 | 0.01 | 37 | 1005.7 |
| 20260503215456 | 51 | 299 | 6.0 | 11.0 | 0.00 | 0.01 | 0.01 | 38 | 1005.7 |
| 20260503214954 | 51 | 49 | 4.0 | 8.0 | 0.00 | 0.01 | 0.01 | 37 | 1005.6 |
| 20260503214452 | 51 | 254 | 2.0 | 6.0 | 0.00 | 0.01 | 0.01 | 38 | 1005.4 |
| 20260503213948 | 51 | 357 | 7.0 | 10.0 | 0.00 | 0.01 | 0.01 | 37 | 1005.5 |
| 20260503213447 | 51 | 271 | 2.0 | 10.0 | 0.00 | 0.01 | 0.01 | 38 | 1005.4 |
| 20260503212943 | 51 | 256 | 8.0 | 10.0 | 0.00 | 0.01 | 0.01 | 37 | 1005.2 |
| 20260503212441 | 51 | 18 | 3.0 | 14.0 | 0.00 | 0.01 | 0.01 | 37 | 1005.4 |
| 20260503211938 | 51 | 244 | 8.0 | 11.0 | 0.00 | 0.01 | 0.01 | 37 | 1005.0 |
| 20260503211435 | 51 | 278 | 5.0 | 10.0 | 0.00 | 0.01 | 0.01 | 37 | 1005.1 |
| 20260503210930 | 51 | 8 | 5.0 | 14.0 | 0.00 | 0.01 | 0.01 | 37 | 1005.2 |
| 20260503210427 | 52 | 303 | 7.0 | 10.0 | 0.00 | 0.01 | 0.01 | 37 | 1005.1 |
| 20260503205922 | 52 | 265 | 3.0 | 7.0 | 0.00 | 0.01 | 0.01 | 37 | 1005.0 |
| 20260503205419 | 52 | 350 | 4.0 | 13.0 | 0.00 | 0.01 | 0.01 | 37 | 1004.8 |
| 20260503204915 | 52 | 310 | 7.0 | 9.0 | 0.00 | 0.01 | 0.01 | 36 | 1004.8 |
| 20260503204413 | 52 | 211 | 4.0 | 10.0 | 0.00 | 0.01 | 0.01 | 37 | 1004.8 |
| 20260503203910 | 52 | 332 | 5.0 | 10.0 | 0.00 | 0.01 | 0.01 | 36 | 1004.7 |
| 20260503203407 | 52 | 6 | 6.0 | 11.0 | 0.00 | 0.01 | 0.01 | 35 | 1004.9 |
| 20260503202904 | 52 | 265 | 7.0 | 9.0 | 0.00 | 0.01 | 0.01 | 36 | 1004.8 |
| 20260503202402 | 52 | 69 | 7.0 | 13.0 | 0.00 | 0.01 | 0.01 | 36 | 1004.8 |
| 20260503201900 | 52 | 229 | 3.0 | 4.0 | 0.00 | 0.01 | 0.01 | 37 | 1004.5 |
| 20260503201357 | 52 | 288 | 4.0 | 7.0 | 0.00 | 0.01 | 0.01 | 37 | 1004.7 |
| 20260503200855 | 52 | 16 | 5.0 | 8.0 | 0.00 | 0.01 | 0.01 | 38 | 1004.8 |
| 20260503200350 | 52 | 305 | 3.0 | 13.0 | 0.00 | 0.01 | 0.01 | 37 | 1004.7 |
| 20260503195848 | 52 | 341 | 6.0 | 17.0 | 0.00 | 0.01 | 0.01 | 36 | 1004.6 |
| 20260503195344 | 53 | 259 | 7.0 | 9.0 | 0.00 | 0.01 | 0.01 | 37 | 1004.6 |
| 20260503194841 | 53 | 303 | 7.0 | 8.0 | 0.00 | 0.01 | 0.01 | 37 | 1004.5 |
| 20260503194337 | 53 | 310 | 2.0 | 10.0 | 0.00 | 0.01 | 0.01 | 38 | 1004.6 |
| 20260503193834 | 52 | 161 | 6.0 | 17.0 | 0.00 | 0.01 | 0.01 | 37 | 1004.6 |
| 20260503193329 | 52 | 230 | 4.0 | 8.0 | 0.00 | 0.01 | 0.01 | 38 | 1004.5 |
| 20260503192825 | 53 | 301 | 4.0 | 21.0 | 0.00 | 0.01 | 0.01 | 37 | 1004.5 |
| 20260503192321 | 53 | 234 | 7.0 | 14.0 | 0.00 | 0.01 | 0.01 | 37 | 1004.2 |
| 20260503191817 | 53 | 241 | 6.0 | 8.0 | 0.00 | 0.01 | 0.01 | 38 | 1004.4 |
| 20260503191315 | 53 | 183 | 2.0 | 6.0 | 0.00 | 0.01 | 0.01 | 38 | 1004.4 |
| 20260503190811 | 53 | 308 | 5.0 | 9.0 | 0.00 | 0.01 | 0.01 | 37 | 1004.5 |
| 20260503190309 | 53 | 242 | 4.0 | 11.0 | 0.00 | 0.01 | 0.01 | 39 | 1004.5 |
| 20260503185806 | 52 | 332 | 3.0 | 11.0 | 0.00 | 0.01 | 0.01 | 39 | 1004.6 |
| 20260503185301 | 52 | 268 | 5.0 | 7.0 | 0.00 | 0.01 | 0.01 | 40 | 1004.5 |
| 20260503184801 | 52 | 317 | 3.0 | 17.0 | 0.00 | 0.01 | 0.01 | 42 | 1004.8 |
| 20260503184258 | 52 | 267 | 4.0 | 10.0 | 0.00 | 0.01 | 0.01 | 42 | 1004.8 |
| 20260503183754 | 52 | 230 | 6.0 | 10.0 | 0.00 | 0.01 | 0.01 | 42 | 1004.6 |
| 20260503183252 | 53 | 316 | 13.0 | 21.0 | 0.00 | 0.01 | 0.01 | 42 | 1004.9 |
| 20260503182749 | 53 | 268 | 4.0 | 10.0 | 0.00 | 0.01 | 0.01 | 42 | 1004.7 |
| 20260503182248 | 53 | 334 | 9.0 | 13.0 | 0.00 | 0.01 | 0.01 | 41 | 1004.6 |
| 20260503181744 | 53 | 279 | 5.0 | 13.0 | 0.00 | 0.01 | 0.01 | 42 | 1004.4 |
| 20260503181241 | 53 | 295 | 9.0 | 13.0 | 0.00 | 0.01 | 0.01 | 41 | 1004.6 |
| 20260503180737 | 53 | 239 | 4.0 | 16.0 | 0.00 | 0.01 | 0.01 | 42 | 1004.7 |
| 20260503180236 | 53 | 272 | 4.0 | 9.0 | 0.00 | 0.01 | 0.01 | 43 | 1005.0 |
| 20260503175732 | 52 | 73 | 4.0 | 6.0 | 0.00 | 0.01 | 0.01 | 43 | 1004.8 |
| 20260503175230 | 52 | 92 | 1.0 | 10.0 | 0.00 | 0.01 | 0.01 | 42 | 1004.6 |
| 20260503174726 | 51 | 268 | 9.0 | 13.0 | 0.00 | 0.01 | 0.01 | 42 | 1004.7 |
| 20260503174225 | 52 | 178 | 4.0 | 14.0 | 0.00 | 0.01 | 0.01 | 42 | 1005.0 |
| 20260503173724 | 51 | 298 | 3.0 | 9.0 | 0.00 | 0.01 | 0.01 | 43 | 1004.8 |
| 20260503173221 | 51 | 243 | 4.0 | 13.0 | 0.00 | 0.01 | 0.01 | 43 | 1004.8 |
| 20260503172718 | 51 | 325 | 6.0 | 14.0 | 0.00 | 0.01 | 0.01 | 43 | 1004.9 |
| 20260503172215 | 50 | 278 | 3.0 | 8.0 | 0.00 | 0.01 | 0.01 | 47 | 1004.9 |
| 20260503171711 | 50 | 283 | 4.0 | 17.0 | 0.00 | 0.01 | 0.01 | 47 | 1004.9 |
| 20260503171208 | 50 | 335 | 4.0 | 10.0 | 0.00 | 0.01 | 0.01 | 48 | 1004.8 |
| 20260503170705 | 51 | 219 | 5.0 | 19.0 | 0.00 | 0.01 | 0.01 | 48 | 1004.6 |
| 20260503170202 | 51 | 354 | 4.0 | 8.0 | 0.00 | 0.01 | 0.01 | 50 | 1004.6 |
| 20260503160124 | 50 | 330 | 7.0 | 11.0 | 0.00 | 0.01 | 0.01 | 53 | 1004.9 |
| 20260503150553 | 46 | 10 | 4.0 | 6.0 | 0.00 | 0.01 | 0.01 | 68 | 1005.2 |
| 20260503130943 | 44 | 357 | 8.0 | 9.0 | 0.00 | 0.01 | 0.01 | 82 | 1005.7 |
| 20260503130441 | 44 | 265 | 4.0 | 8.0 | 0.00 | 0.01 | 0.01 | 83 | 1005.6 |
| 20260503110338 | 41 | 351 | 3.0 | 4.0 | 0.00 | 0.00 | 0.00 | 88 | 1005.9 |
| 20260503090223 | 40 | 122 | 1.0 | 3.0 | 0.00 | 0.00 | 0.00 | 91 | 1006.3 |
| 20260503081150 | 40 | 145 | 0.0 | 1.0 | 0.00 | 0.00 | 0.00 | 93 | 1006.8 |
| 20260503080646 | 41 | 110 | 0.0 | 0.0 | 0.00 | 0.00 | 0.00 | 93 | 1006.9 |
| 20260503080143 | 41 | 143 | 0.0 | 0.0 | 0.00 | 0.00 | 0.00 | 93 | 1007.1 |
| 20260503072620 | 41 | 116 | 0.0 | 0.0 | 0.00 | 0.00 | 0.00 | 94 | 1007.1 |
| 20260503072117 | 41 | 134 | 0.0 | 2.0 | 0.00 | 0.00 | 0.00 | 94 | 1007.3 |
| 20260503071614 | 41 | 253 | 1.0 | 2.0 | 0.00 | 0.00 | 0.00 | 94 | 1007.3 |
| 20260503071110 | 41 | 184 | 1.0 | 2.0 | 0.00 | 0.00 | 0.00 | 95 | 1007.3 |
| 20260503070608 | 41 | 111 | 0.0 | 0.0 | 0.00 | 0.00 | 0.00 | 95 | 1007.4 |
| 20260503070106 | 41 | 119 | 0.0 | 2.0 | 0.00 | 0.00 | 0.00 | 95 | 1007.6 |